When you browse on this site, cookies collect data to enhance your experience and personalize the content and advertising you see.
Visit our Privacy Policy to learn more. By continuing to use the site, you agree to this use of cookies and data.
  • In Slovakia
  • List of Countries
  • For 7 days
  • Water Temperature
  • Satellite Maps
  • Weather Map
  • Weather Widgets
  • user-avatar
    Login

    Hourly Weather Quito

    Today, 21 November, Wednesday

    Time Temperature Precipitation Wind Pressure Humidity
    00:00 +18°C° 0.2 mm 2 mps 622 mmHg 89%
    01:00 +18°C° 0.2 mm 2 mps 622 mmHg 90%
    02:00 +18°C° 1 mm 2 mps 622 mmHg 90%
    03:00 +17°C° 1 mm 2 mps 622 mmHg 91%
    04:00 +17°C° 1 mm 2 mps 621 mmHg 92%
    05:00 +18°C° 0 mm 2 mps 622 mmHg 90%
    06:00 +19°C° 0 mm 2 mps 623 mmHg 88%
    07:00 +19°C° 0 mm 2 mps 623 mmHg 86%
    08:00 +21°C° 1 mm 2 mps 624 mmHg 80%
    09:00 +23°C° 1 mm 1 mps 624 mmHg 75%
    10:00 +25°C° 1 mm 1 mps 624 mmHg 69%
    11:00 +24°C° 2.2 mm 1 mps 624 mmHg 73%
    12:00 +23°C° 2.2 mm 1 mps 623 mmHg 76%
    13:00 +23°C° 2.2 mm 2 mps 622 mmHg 79%
    14:00 +21°C° 0.6 mm 2 mps 622 mmHg 79%
    15:00 +21°C° 0.6 mm 2 mps 622 mmHg 80%
    16:00 +21°C° 0.6 mm 2 mps 622 mmHg 80%
    17:00 +20°C° 0 mm 2 mps 622 mmHg 82%
    18:00 +19°C° 0 mm 2 mps 622 mmHg 83%
    19:00 +18°C° 0 mm 2 mps 622 mmHg 85%
    20:00 +18°C° 0 mm 2 mps 622 mmHg 85%
    21:00 +18°C° 0 mm 1 mps 622 mmHg 85%
    22:00 +18°C° 0 mm 1 mps 623 mmHg 85%
    23:00 +18°C° 0 mm 1 mps 622 mmHg 86%

    Tomorrow, 22 November, Thursday

    Time Temperature Precipitation Wind Pressure Humidity
    00:00 +18°C° 0 mm 1 mps 622 mmHg 87%
    01:00 +16°C° 0 mm 1 mps 622 mmHg 88%
    02:00 +16°C° 0 mm 1 mps 622 mmHg 87%
    03:00 +15°C° 0 mm 0 mps 621 mmHg 87%
    04:00 +15°C° 0 mm 0 mps 621 mmHg 87%
    05:00 +16°C° 0 mm 0 mps 622 mmHg 84%
    06:00 +17°C° 0 mm 0 mps 622 mmHg 81%
    07:00 +18°C° 0 mm 0 mps 623 mmHg 78%
    08:00 +21°C° 0 mm 0 mps 624 mmHg 68%
    09:00 +24°C° 0 mm 0 mps 625 mmHg 59%
    10:00 +29°C° 0 mm 1 mps 626 mmHg 49%
    11:00 +29°C° 0 mm 1 mps 625 mmHg 47%
    12:00 +29°C° 0 mm 1 mps 624 mmHg 45%
    13:00 +29°C° 0 mm 1 mps 624 mmHg 43%
    14:00 +29°C° 0 mm 1 mps 623 mmHg 45%
    15:00 +28°C° 0 mm 1 mps 623 mmHg 47%
    16:00 +28°C° 0 mm 1 mps 622 mmHg 49%
    17:00 +26°C° 0.1 mm 1 mps 622 mmHg 56%
    18:00 +24°C° 0.1 mm 1 mps 622 mmHg 64%
    19:00 +22°C° 0.1 mm 1 mps 622 mmHg 71%
    20:00 +21°C° 0.8 mm 1 mps 622 mmHg 76%
    21:00 +20°C° 0.8 mm 1 mps 622 mmHg 82%
    22:00 +19°C° 0.8 mm 1 mps 623 mmHg 87%
    23:00 +19°C° 0.3 mm 1 mps 622 mmHg 89%

    Day after tomorrow, 23 November, Friday

    Time Temperature Precipitation Wind Pressure Humidity
    00:00 +19°C° 0.3 mm 1 mps 622 mmHg 90%
    01:00 +19°C° 0.3 mm 1 mps 622 mmHg 91%
    02:00 +18°C° 0 mm 1 mps 621 mmHg 92%
    03:00 +18°C° 0 mm 1 mps 621 mmHg 92%
    04:00 +18°C° 0 mm 1 mps 621 mmHg 93%
    05:00 +19°C° 0 mm 1 mps 622 mmHg 90%
    06:00 +20°C° 0 mm 1 mps 623 mmHg 87%
    07:00 +20°C° 0 mm 1 mps 623 mmHg 85%
    08:00 +23°C° 0.4 mm 1 mps 624 mmHg 75%
    09:00 +25°C° 0.4 mm 1 mps 625 mmHg 65%
    10:00 +28°C° 0.4 mm 1 mps 625 mmHg 55%
    11:00 +29°C° 0.1 mm 1 mps 625 mmHg 50%
    12:00 +30°C° 0.1 mm 1 mps 625 mmHg 46%
    13:00 +31°C° 0.1 mm 1 mps 624 mmHg 42%
    14:00 +30°C° 0 mm 1 mps 623 mmHg 45%
    15:00 +29°C° 0 mm 1 mps 623 mmHg 49%
    16:00 +28°C° 0 mm 1 mps 622 mmHg 53%
    17:00 +26°C° 0.2 mm 1 mps 622 mmHg 60%
    18:00 +24°C° 0.2 mm 1 mps 622 mmHg 67%
    19:00 +22°C° 0.2 mm 1 mps 621 mmHg 74%
    20:00 +21°C° 3.3 mm 1 mps 622 mmHg 79%
    21:00 +20°C° 3.3 mm 2 mps 622 mmHg 84%
    22:00 +19°C° 3.3 mm 2 mps 622 mmHg 90%
    23:00 +18°C° 0.8 mm 2 mps 622 mmHg 90%

    24 November, Saturday

    Time Temperature Precipitation Wind Pressure Humidity
    00:00 +18°C° 0.8 mm 2 mps 622 mmHg 90%
    01:00 +18°C° 0.8 mm 2 mps 621 mmHg 90%
    02:00 +18°C° 0 mm 2 mps 621 mmHg 91%
    03:00 +17°C° 0 mm 2 mps 621 mmHg 93%
    04:00 +18°C° 0 mm 1 mps 621 mmHg 95%
    05:00 +19°C° 0.1 mm 1 mps 621 mmHg 92%
    06:00 +20°C° 0.1 mm 1 mps 622 mmHg 88%
    07:00 +20°C° 0.1 mm 1 mps 623 mmHg 85%
    08:00 +22°C° 0.5 mm 1 mps 624 mmHg 77%
    09:00 +24°C° 0.5 mm 1 mps 624 mmHg 69%
    10:00 +26°C° 0.5 mm 1 mps 625 mmHg 60%
    11:00 +27°C° 0.6 mm 1 mps 624 mmHg 59%
    12:00 +28°C° 0.6 mm 1 mps 624 mmHg 57%
    13:00 +28°C° 0.6 mm 1 mps 623 mmHg 56%
    14:00 +28°C° 0.6 mm 1 mps 623 mmHg 56%
    15:00 +28°C° 0.6 mm 1 mps 622 mmHg 57%
    16:00 +27°C° 0.6 mm 1 mps 622 mmHg 57%
    17:00 +25°C° 0.3 mm 1 mps 622 mmHg 64%
    18:00 +23°C° 0.3 mm 1 mps 622 mmHg 70%
    19:00 +22°C° 0.3 mm 1 mps 622 mmHg 77%
    20:00 +21°C° 0.5 mm 1 mps 622 mmHg 81%
    21:00 +20°C° 0.5 mm 1 mps 622 mmHg 85%
    22:00 +19°C° 0.5 mm 1 mps 622 mmHg 90%
    23:00 +19°C° 0.8 mm 1 mps 622 mmHg 91%

    25 November, Sunday

    Time Temperature Precipitation Wind Pressure Humidity
    00:00 +19°C° 0.8 mm 1 mps 621 mmHg 93%
    01:00 +18°C° 0.8 mm 1 mps 621 mmHg 94%
    02:00 +18°C° 1.1 mm 1 mps 621 mmHg 95%
    03:00 +18°C° 1.1 mm 1 mps 621 mmHg 95%
    04:00 +18°C° 1.1 mm 1 mps 621 mmHg 95%
    05:00 +19°C° 1.3 mm 1 mps 622 mmHg 92%
    06:00 +18°C° 1.3 mm 0 mps 622 mmHg 90%
    07:00 +19°C° 1.3 mm 0 mps 623 mmHg 87%
    08:00 +22°C° 0.7 mm 1 mps 624 mmHg 81%
    09:00 +24°C° 0.7 mm 1 mps 624 mmHg 74%
    10:00 +26°C° 0.7 mm 1 mps 624 mmHg 67%
    11:00 +26°C° 1.6 mm 1 mps 624 mmHg 66%
    12:00 +26°C° 1.6 mm 1 mps 623 mmHg 65%
    13:00 +26°C° 1.6 mm 1 mps 622 mmHg 64%
    14:00 +26°C° 1.2 mm 1 mps 622 mmHg 66%
    15:00 +26°C° 1.2 mm 1 mps 621 mmHg 67%
    16:00 +25°C° 1.2 mm 1 mps 621 mmHg 69%
    17:00 +24°C° 0.3 mm 1 mps 621 mmHg 74%
    18:00 +22°C° 0.3 mm 1 mps 621 mmHg 79%
    19:00 +20°C° 0.3 mm 1 mps 621 mmHg 84%
    20:00 +20°C° 0.8 mm 1 mps 621 mmHg 86%
    21:00 +19°C° 0.8 mm 1 mps 621 mmHg 89%
    22:00 +19°C° 0.8 mm 1 mps 622 mmHg 91%
    23:00 +19°C° 1.1 mm 1 mps 621 mmHg 92%

    26 November, Monday

    Time Temperature Precipitation Wind Pressure Humidity
    00:00 +18°C° 1.1 mm 1 mps 621 mmHg 93%
    01:00 +18°C° 1.1 mm 1 mps 621 mmHg 94%
    02:00 +18°C° 0.3 mm 1 mps 620 mmHg 94%
    03:00 +18°C° 0.3 mm 1 mps 620 mmHg 94%
    04:00 +18°C° 0.3 mm 1 mps 620 mmHg 94%
    05:00 +19°C° 0 mm 1 mps 621 mmHg 91%
    06:00 +19°C° 0 mm 1 mps 622 mmHg 89%
    07:00 +20°C° 0 mm 1 mps 622 mmHg 87%
    08:00 +23°C° 0.5 mm 1 mps 623 mmHg 78%
    09:00 +25°C° 0.5 mm 1 mps 623 mmHg 70%
    10:00 +25°C° 0.5 mm 0 mps 624 mmHg 61%
    11:00 +28°C° 0.2 mm 1 mps 623 mmHg 57%
    12:00 +28°C° 0.2 mm 1 mps 623 mmHg 53%
    13:00 +29°C° 0.2 mm 1 mps 622 mmHg 49%
    14:00 +28°C° 0.4 mm 2 mps 622 mmHg 55%
    15:00 +27°C° 0.4 mm 2 mps 621 mmHg 60%
    16:00 +26°C° 0.4 mm 2 mps 620 mmHg 66%
    17:00 +24°C° 0.6 mm 1 mps 620 mmHg 72%
    18:00 +22°C° 0.6 mm 1 mps 620 mmHg 78%
    19:00 +20°C° 0.6 mm 1 mps 620 mmHg 85%
    20:00 +20°C° 0.2 mm 1 mps 620 mmHg 85%
    21:00 +20°C° 0.2 mm 1 mps 621 mmHg 85%
    22:00 +19°C° 0.2 mm 1 mps 621 mmHg 85%
    23:00 +19°C° 0.1 mm 1 mps 620 mmHg 87%
    Show more